Regional Weather Roundup
Issued by NWS Goodland, KS

Home | Current Version | Previous Version | Text Only | Print | Product List | Glossary Off
Versions: 1 2 3 4 5 6 7 8 9 10 11 12 13 14 15 16 17 18 19 20 21 22 23 24 25 26 27 28 29 30 31 32 33 34 35 36 37 38 39 40 41 42 43 44 45 46 47 48 49 50

000
ASUS43 KGLD 231208
RWRGLD

GOODLAND FORECAST AREA HOURLY WEATHER ROUNDUP
NATIONAL WEATHER SERVICE GOODLAND KS
600 AM MDT TUE AUG 23 2016

...OFFICIAL OBSERVATIONS...

CITY           SKY/WX    TMP DP  RH WIND       PRES   REMARKS
GOODLAND KS    CLEAR     62  55  77 S7        29.85R
HILL CITY KS   PTCLDY    71  65  81 S7        29.86R
IMPERIAL NEB   CLEAR     63  60  90 SE8       29.84R
MCCOOK NEB     CLEAR     65  62  90 E10       29.84R
AKRON CO       CLEAR     57  42  57 W15       29.94R
BURLINGTON CO  CLEAR     58  48  69 W14       29.89R
LIMON CO       CLOUDY    52  38  58 N6        29.99R
$$

...UNOFFICIAL OBSERVATIONS...

CITY           SKY/WX    TMP DP  RH WIND       PRES   REMARKS
COLBY KS       CLEAR     68  64  88 S9        29.85S
LENORA KS        N/A     69  32  25 MISG        N/A
NORTON KS      CLEAR     64  57  77 CALM      29.84
SHARON SPRINGS   N/A     63  57  81 SW12        N/A
TRENTON NEB      N/A     64  32  30 MISG        N/A
KIT CARSON CO    N/A     54  48  81 CALM        N/A
YUMA CO          N/A     50  48  93 NW5         N/A
$$




USA.gov is the U.S. government's official web portal to all federal, state and local government web resources and services.